User: anonymous   Login
Location: PSU-Greenbush Astrophysical Observatory
(37.5140°N, 94.9880°W)
Time: 08:33:00
(UTC-06:00)
Language:

BEESAT - Orbit

View from above orbital plane
View from above orbital plane
View from above satellite
View from above satellite

Ground track
Ground track

The orbit data is extracted from the following two-line orbital elements,

1 35933U 09051C   20048.76815058 +.00000089 +00000-0 +31008-4 0  9995
2 35933 098.6044 229.0432 0006504 142.5069 217.6582 14.56438473552334
Epoch (UTC): 17 February 2020 18:26:08
Eccentricity: 0.0006504
inclination: 98.6044°
perigee height: 700 km
apogee height: 709 km
right ascension of ascending node: 229.0432°
argument of perigee: 142.5069°
revolutions per day: 14.56438473
mean anomaly at epoch: 217.6582°
orbit number at epoch: 55233

The dashed part of the orbit path shows where the satellite is in the earth's shadow,  

DLR